Flag Weather past 2 weeks in Augusta, Maine, U.S.A.

Now
49 °F

Clear.


Feels Like: 45 °F
Forecast: 30 / 40 °F
Wind: 9 mph from Northwest

Location: Augusta State Airport

Current Time: Nov 25, 2014 at 7:40:39 PM

Latest Report: Nov 25, 2014 at 6:53 PM


Visibility: 10 mi

Pressure: 29.94 "Hg

Humidity: 43%

Dew point: 27 °F

Location of AugustaLocation

Historic Weather in Augusta — Graph

°F

Augusta temperature yesterday

Maximum temperature yesterday: 58 °F (at 5:53 PM)
Minimum temperature yesterday: 40 °F (at 12:53 AM)
Average temperature yesterday: 51 °F

Past Weeks' High & Low Weather Summary

 TemperatureHumidityPressure
High60 °F (Nov 25, 4:53 AM)100% (Nov 11, 6:00 AM)30.34 "Hg (Nov 11, 6:00 AM)
Low19 °F (Nov 21, 11:53 PM)31% (Nov 25, 1:53 PM)29.37 "Hg (Nov 18, 4:04 AM)
Average36 °F68%29.96 "Hg
* Reported Nov 10 5:53 PM — Nov 25 5:53 PM, Augusta, Weather by CustomWeather, © 2014

Note: Actual official high and low records may vary slightly from our data, if they occured in-between our weather recording intervals... More about our weather records

Advertising

Augusta weather history for previous 24 hours

 ConditionsComfort  
Time TempWeatherWind HumidityBarometerVisibility
5:53 PM
Nov 25
50 °FClear.12 mph39%29.89 "Hg10 mi
4:53 PM52 °FClear.6 mph37%29.85 "Hg10 mi
3:53 PM54 °FSunny.9 mph37%29.82 "Hg10 mi
2:53 PM56 °FSunny.9 mph32%29.80 "Hg10 mi
1:53 PM57 °FSunny.12 mph31%29.78 "Hg10 mi
12:53 PM58 °FSunny.13 mph32%29.78 "Hg10 mi
11:53 AM59 °FSunny.8 mph51%29.77 "Hg10 mi
10:53 AM58 °FSunny.6 mph67%29.77 "Hg10 mi
9:53 AM56 °FSunny.10 mph81%29.77 "Hg10 mi
8:53 AM54 °FSunny.8 mph86%29.75 "Hg10 mi
7:53 AM53 °FSunny.8 mph89%29.73 "Hg10 mi
6:53 AM53 °FSunny.7 mph86%29.70 "Hg10 mi
5:53 AM55 °FClear.9 mph83%29.66 "Hg10 mi
4:53 AM60 °FClear.9 mph67%29.65 "Hg10 mi
3:53 AM58 °FClear.8 mph78%29.64 "Hg10 mi
2:53 AM56 °FClear.8 mph87%29.64 "Hg10 mi
1:53 AM54 °FClear.9 mph93%29.62 "Hg10 mi
12:53 AM52 °FClear.8 mph97%29.60 "Hg8 mi
11:53 PM
Nov 24
53 °FFog.9 mph96%29.58 "Hg5 mi
11:02 PM54 °FPassing clouds.8 mph97%29.56 "Hg7 mi
10:53 PM55 °FPassing clouds.10 mph93%29.56 "Hg8 mi
9:53 PM56 °FLow clouds.7 mph93%29.55 "Hg8 mi
8:53 PM56 °FLow clouds.12 mph97%29.55 "Hg8 mi
7:53 PM57 °FLow clouds.10 mph96%29.54 "Hg8 mi
Weather by CustomWeather, © 2014

See weather overviewHow to use our weather pages